• Join FlightAware (Why Join?)
  • Login
  • US Flag 
06:44AM EST


 

Airport Tracker/Info


-or-


 

Live Flight TrackerFlight Track Log ✈ TAM3147 ✈ 13 Jun 2013 ✈ SBVT / VIX - SBRJ / SDU

Flight Track Log - Related Links

Times and Time Zones

All times are in EDT time to prevent confusion due to time zone crossing. See the TAM3147 flight status page for this flight to view local times or setup timezone preferences in your user account.

Time Position Orientation Groundspeed Altitude Reporting Facility
EDT Latitude Longitude Course Direction KTS MPH feet Rate Location/Type
07:06AM -20.2600 -40.2900 76° East  Level FlightAware
07:08AM -20.2610 -40.2910 223° Southwest 132 Level FlightAware
07:09AM -20.2630 -40.2910 180° South 171 Level FlightAware
07:11AM -20.3666 -40.4005 225° Southwest  Level Estimated
07:12AM -20.4202 -40.4572 225° Southwest  Level Estimated
07:13AM -20.4737 -40.5140 225° Southwest  Level Estimated
07:13AM -20.2640 -40.2910 225° Southwest  Level FlightAware
07:14AM -20.2630 -40.2900 43° Northeast 750 Level FlightAware
07:14AM -20.2520 -40.2830 31° Northeast 145 167 1,333 Level FlightAware
07:15AM -20.2360 -40.2720 33° Northeast 147 169 1,200 2,328 Climbing FlightAware
07:15AM -20.2180 -40.2590 34° Northeast 156 180 2,600 2,327 Climbing FlightAware
07:16AM -20.2140 -40.2490 67° East 164 189 3,100 1,902 Climbing FlightAware
07:16AM -20.2220 -40.2240 109° East 195 224 3,900 1,966 Climbing FlightAware
07:17AM -20.2330 -40.1930 111° Southeast 237 273 5,000 3,400 Climbing FlightAware
07:17AM -20.2450 -40.1580 110° East 230 265 7,300 4,000 Climbing FlightAware
07:18AM -20.2570 -40.1240 111° Southeast 238 274 9,000 3,176 Climbing FlightAware
07:18AM -20.2700 -40.1020 122° Southeast 242 278 10,000 2,429 Climbing FlightAware
07:18AM -20.2860 -40.0970 164° South 250 288 10,700 2,361 Climbing FlightAware
07:19AM -20.3410 -40.1070 190° South 286 329 12,400 1,714 Climbing FlightAware
07:20AM -20.4240 -40.1470 204° Southwest 357 411 13,700 1,730 Climbing FlightAware
07:21AM -20.4920 -40.2070 220° Southwest 382 440 15,600 2,471 Climbing FlightAware
07:21AM -20.5440 -40.2530 220° Southwest 387 445 17,200 2,329 Climbing FlightAware
07:22AM -20.6110 -40.3100 219° Southwest 399 459 18,900 2,023 Climbing FlightAware
07:23AM -20.6670 -40.3600 220° Southwest 410 472 20,100 2,025 Climbing FlightAware
07:24AM -20.7300 -40.4150 219° Southwest 414 476 21,600 2,175 Climbing FlightAware
07:24AM -20.7850 -40.4630 219° Southwest 416 479 23,000 1,982 Climbing FlightAware
07:25AM -20.8970 -40.5610 219° Southwest 424 488 25,300 1,714 Climbing FlightAware
07:26AM -20.9720 -40.6270 219° Southwest 434 499 26,400 1,531 Climbing FlightAware
07:27AM -21.0520 -40.6980 220° Southwest 438 504 27,800 1,011 Climbing FlightAware
07:28AM -21.1200 -40.7570 219° Southwest 439 505 28,000 135 Climbing FlightAware
07:29AM -21.1870 -40.8170 220° Southwest 443 510 28,000  Level FlightAware
07:29AM -21.2400 -40.8630 219° Southwest 441 507 28,000  Level FlightAware
07:30AM -21.3160 -40.9300 219° Southwest 438 504 28,000  Level FlightAware
07:31AM -21.3770 -40.9840 219° Southwest 440 506 28,000  Level FlightAware
07:31AM -21.4440 -41.0430 219° Southwest 441 507 28,000  Level FlightAware
07:32AM -21.5180 -41.1090 220° Southwest 438 504 28,000  Level FlightAware
07:33AM -21.5820 -41.1660 220° Southwest 438 504 28,000  Level FlightAware
07:33AM -21.6460 -41.2230 220° Southwest 441 507 28,000  Level FlightAware
07:34AM -21.7410 -41.3080 220° Southwest 443 510 28,000  Level FlightAware
07:36AM -21.8130 -41.3730 220° Southwest 442 509 28,000  Level FlightAware
07:37AM -21.9520 -41.4960 219° Southwest 438 504 28,000  Level FlightAware
07:38AM -22.0720 -41.6040 220° Southwest 440 506 28,000  Level FlightAware
07:38AM -22.1310 -41.6580 220° Southwest 436 502 28,000  Level FlightAware
07:39AM -22.2020 -41.7210 219° Southwest 435 501 28,000  Level FlightAware
07:40AM -22.2630 -41.7760 220° Southwest 437 503 28,000  Level FlightAware
07:40AM -22.3280 -41.8350 220° Southwest 438 504 28,000  Level FlightAware
07:41AM -22.3970 -41.8970 220° Southwest 437 503 28,000  Level FlightAware
07:42AM -22.4330 -41.9290 219° Southwest 438 504 28,000  Level FlightAware
07:43AM -22.5070 -41.9960 220° Southwest 434 499 28,000  Level FlightAware
07:43AM -22.5910 -42.0740 221° Southwest 433 498 28,000  Level FlightAware
07:44AM -22.6600 -42.1550 227° Southwest 426 490 28,000 -126 Level FlightAware
07:45AM -22.7210 -42.2310 229° Southwest 426 490 27,800 -2,935 Descending FlightAware
07:46AM -22.7960 -42.3250 229° Southwest 440 506 23,500 -3,663 Descending FlightAware
07:47AM -22.8390 -42.3800 230° Southwest 417 480 22,000 -3,563 Descending FlightAware
07:47AM -22.8660 -42.4460 246° West 405 466 19,700 -4,190 Descending FlightAware
07:48AM -22.8830 -42.5230 257° West 393 452 17,600 -3,293 Descending FlightAware
07:48AM -22.9000 -42.5950 256° West 396 456 15,200 -2,714 Descending FlightAware
07:49AM -22.9190 -42.6830 257° West 392 451 13,800 -1,149 Descending FlightAware
07:50AM -22.9400 -42.7710 255° West 388 447 13,400 -1,011 Descending FlightAware
07:51AM -22.9610 -42.8600 256° West 382 440 12,200 -1,079 Descending FlightAware
07:51AM -22.9800 -42.9490 257° West 394 453 11,800 -558 Descending FlightAware
07:52AM -22.9950 -43.0280 258° West 394 453 11,400 -857 Descending FlightAware
07:53AM -23.0100 -43.1100 259° West 368 423 10,600 -1,071 Descending FlightAware
07:54AM -23.0220 -43.1780 259° West 329 379 9,900 -960 Descending FlightAware
07:54AM -23.0260 -43.1950 256° West 320 368 9,800 -585 Descending FlightAware
07:54AM -23.0340 -43.2380 259° West 292 336 9,500 -621 Descending FlightAware
07:55AM -23.0410 -43.2770 259° West 270 311 9,200 -414 Descending FlightAware
07:55AM -23.0440 -43.2900 256° West 263 303 9,100 -545 Descending FlightAware
07:56AM -23.0520 -43.3370 260° West 238 274 8,700 -878 Descending FlightAware
07:56AM -23.0570 -43.3640 259° West 224 258 8,500 -923 Descending FlightAware
07:56AM -23.0610 -43.3880 260° West 216 249 8,100 -1,364 Descending FlightAware
07:57AM -23.0510 -43.4080 299° West 224 258 7,500 -1,773 Descending FlightAware
07:57AM -23.0300 -43.4220 328° Northwest 235 270 6,800 -1,846 Descending FlightAware
07:57AM -23.0030 -43.4410 327° Northwest 247 284 5,900 -964 Descending FlightAware
07:58AM -22.9830 -43.4570 324° Northwest 247 284 5,900 -1,143 Level FlightAware
07:58AM -22.9690 -43.4660 329° Northwest 245 282 5,100 -844 Descending FlightAware
07:59AM -22.9290 -43.4450 26° Northeast 210 242 5,000 -411 Descending FlightAware
07:59AM -22.9170 -43.4220 60° Northeast 206 237 4,600 -808 Descending FlightAware
08:00AM -22.9090 -43.4070 60° Northeast 206 237 4,300 -923 Descending FlightAware
08:00AM -22.8890 -43.3680 61° Northeast 203 234 3,600 -1,085 Descending FlightAware
08:01AM -22.8830 -43.3130 83° East 201 231 2,600 -742 Descending FlightAware
08:02AM -22.8850 -43.2820 94° East 182 209 2,500 -316 Descending FlightAware
08:02AM -22.8880 -43.2600 98° East 162 186 2,300 -600 Descending FlightAware
08:03AM -22.8940 -43.2490 121° Southeast 154 177 2,100 -783 Descending FlightAware
08:03AM -22.9090 -43.2240 123° Southeast 144 166 1,700 -700 Descending FlightAware
08:04AM -22.9190 -43.2060 121° Southeast 133 153 1,400 -600 Descending FlightAware
08:04AM -22.9250 -43.1950 121° Southeast 130 150 1,200 -632 Descending FlightAware
08:04AM -22.9340 -43.1890 148° Southeast 132 152 1,000 -529 Descending FlightAware
08:05AM -22.9430 -43.1860 163° South 128 147 900 -643 Descending FlightAware
08:05AM -22.9460 -43.1800 119° Southeast 131 151 700 -857 Descending FlightAware
08:05AM -22.9300 -43.1620 46° Northeast 128 147 100 -818 Descending FlightAware
08:06AM -22.9150 -43.1630 356° North 122 140 -231 Descending FlightAware
08:06AM -22.9010 -43.1630 360° North 122 140  Level FlightAware
08:09AM -22.9105 -43.1631 181° South  Level Estimated
08:10AM -22.9105 -43.1631 250° West  Level Estimated
08:11AM -22.9105 -43.1631 250° West  Level Estimated
08:12AM -22.9105 -43.1631 250° West  Level Estimated
08:13AM -22.9105 -43.1631 250° West  Level Estimated
08:14AM -22.9105 -43.1631 250° West  Level Estimated
08:15AM -22.9105 -43.1631 250° West  Level Estimated
08:16AM -22.9105 -43.1631 250° West  Level Estimated
08:17AM -22.9105 -43.1631 250° West  Level Estimated
08:18AM -22.9105 -43.1631 250° West  Level Estimated
08:19AM -22.9105 -43.1631 250° West  Level Estimated
08:20AM -22.9105 -43.1631 250° West  Level Estimated